Flag for U.S.A. Weather past 2 weeks in Glendale, Arizona, U.S.A.

Now
63 °F

Clear.


Feels Like: 63 °F
Forecast: 56 / 66 °F
Wind: 6 mph from South

Location: Phoenix-Deer Valley Municipal Airport

Current Time: Feb 28, 2015 at 8:03:04 PM

Latest Report: Feb 28, 2015 at 6:53 PM


Visibility: 10 mi

Pressure: 29.79 "Hg

Humidity: 47%

Dew point: 42 °F

Location of GlendaleLocation

Historic Weather in Glendale — Graph

°F

Glendale temperature yesterday

Maximum temperature yesterday: 72 °F (at 2:53 PM)
Minimum temperature yesterday: 50 °F (at 1:53 AM)
Average temperature yesterday: 62 °F

Past Weeks' High & Low Weather Summary

 TemperatureHumidityPressure
High81 °F (Feb 14, 2:53 PM)96% (Feb 24, 1:53 AM)30.17 "Hg (Feb 24, 1:53 AM)
Low43 °F (Feb 25, 4:53 AM)9% (Feb 17, 1:53 PM)29.57 "Hg (Feb 27, 4:53 PM)
Average62 °F40%29.90 "Hg
* Reported Feb 13 6:53 PM — Feb 28 6:53 PM, Glendale, Weather by CustomWeather, © 2015

Note: Actual official high and low records may vary slightly from our data, if they occured in-between our weather recording intervals... More about our weather records

Advertising

Glendale weather history for previous 24 hours

 ConditionsComfort  
Time TempWeatherWind HumidityBarometerVisibility
6:53 PM
Sat, Feb 28
63 °FClear.6 mph47%29.79 "Hg10 mi
5:53 PM65 °FSunny.7 mph44%29.78 "Hg10 mi
4:53 PM66 °FPartly sunny.12 mph40%29.77 "Hg10 mi
3:53 PM67 °FPartly sunny.16 mph39%29.76 "Hg10 mi
2:53 PM65 °FOvercast.10 mph45%29.76 "Hg10 mi
1:53 PM64 °FMostly cloudy.14 mph49%29.77 "Hg10 mi
12:53 PM65 °FBroken clouds.10 mph45%29.78 "Hg10 mi
11:53 AM63 °FMostly cloudy.10 mph56%29.79 "Hg10 mi
10:53 AM60 °FCloudy.10 mph65%29.79 "Hg10 mi
9:53 AM57 °FOvercast.8 mph78%29.79 "Hg10 mi
8:53 AM55 °FOvercast.6 mph87%29.77 "Hg10 mi
7:53 AM55 °FOvercast.6 mph80%29.74 "Hg10 mi
6:53 AM57 °FOvercast.12 mph64%29.72 "Hg10 mi
5:53 AM58 °FOvercast.6 mph62%29.70 "Hg10 mi
4:53 AM58 °FPassing clouds.10 mph62%29.67 "Hg10 mi
3:53 AM59 °FPassing clouds.12 mph56%29.67 "Hg10 mi
2:53 AM59 °FPassing clouds.8 mph54%29.67 "Hg10 mi
1:53 AM60 °FPassing clouds.8 mph49%29.67 "Hg10 mi
12:53 AM61 °FOvercast.10 mph42%29.65 "Hg10 mi
11:53 PM
Fri, Feb 27
62 °FPassing clouds.6 mph39%29.65 "Hg10 mi
10:53 PM62 °FClear.8 mph41%29.64 "Hg10 mi
9:53 PM64 °FClear.10 mph40%29.63 "Hg10 mi
8:53 PM66 °FPassing clouds.14 mph37%29.61 "Hg10 mi
Weather by CustomWeather, © 2015

See weather overviewHow to use our weather pages